www.pogodaiklimat.ru

Погода и климат >> Архив погоды >> Россия >> Свердловская область >> Екатеринбург


АРХИВ ПОГОДЫ в Екатеринбурге

Время (UTC), дата Ветер
(напр.,м/с)
 
Видим.   Явления Облачность Т
(С)
Тd
(С)
f
(%)
Тe
(С)
Тes
(С)
Комфортность P
(гПа)
Po
(гПа)
Тmin
(С)
Tmax
(С)
R
(мм)
R24
(мм)
S
(см)
06 13.02 Ю 1 50 км 8/0
[Cc]
-3.6 -13.8 45 -5 -3 тепло 1030.9 995.0
09 13.02 ЮЗ 1 50 км 8/0
[Cs]
+0.5 -12.8 36 -0 +2 тепло 1029.5 994.2
12 13.02 Ю 2 50 км 9/0
[Ac As Cs]
-0.9 -12.7 40 -4 -4 тепло 1029.3 993.8
15 13.02 Ю 1 10 км 4/0
[Ci fib]
-3.4 -12.9 48 -5 -5 тепло 1029.4 993.5 +1.5
18 13.02 Ю 2 10 км 8/0
[Cs]
-5.0 -13.7 50 -9 -9 тепло 1028.5 992.5
21 13.02 Ю 2 10 км 8/0
[Cs]
-5.5 -13.7 52 -9 -9 тепло 1028.2 992.1
00 14.02 Ю 2 10 км 9/0
[Ac As Cs]
-5.9 -13.5 55 -10 -10 тепло 1026.0 990.0
03 14.02 Ю 3 10 км 6/0
[Ac trans Cs]
-4.5 -13.6 49 -9 -9 тепло 1024.1 988.4 -6.4 40
06 14.02 Ю 2 50 км 9/0
[Ac trans Cs]
-3.6 -12.3 51 -7 -6 тепло 1023.2 987.6
09 14.02 Ю 3 50 км 9/0
[Ac As]
-1.8 -11.9 46 -6 -5 тепло 1021.8 986.5
12 14.02 Ю 2 50 км 9/0
[Ac trans Cs]
-1.4 -10.7 49 -5 -4 тепло 1020.1 984.8
15 14.02 Ю 2 10 км 8/3 600 м
[Sc Cs]
-2.9 -11.2 53 -6 -6 тепло 1019.3 983.9 -0.5
18 14.02 Ю 2 10 км 9/8 600 м
[Sc Cs]
-3.2 -11.1 54 -7 -7 тепло 1017.9 982.5
21 14.02 ЮЗ 3 4000 м слаб. снег 10/0
[As op]
-4.2 -7.9 75 -9 -9 тепло 1016.8 981.4
00 15.02 З 3 4000 м {снег} 10/0
[As op]
-5.4 -7.9 83 -11 -11 тепло 1015.0 979.4
03 15.02 З 3 4000 м слаб. ливневой снег 9/9 600 м
[Cb cap]
-6.6 -9.5 80 -12 -12 по сезону 1014.3 978.6 -6.6 0.9 38
06 15.02 З 4
{10}
20 км {ливн. осадки, снег} 8/8 1000 м
[Sc]
-7.3 -11.5 72 -14 -14 по сезону 1014.0 978.2 -7.4
09 15.02 СЗ 3
{10}
4000 м слаб. ливневой снег 10/8 600 м
[Cb cap Ci]
-5.6 -10.4 69 -11 -11 по сезону 1013.2 977.6
12 15.02 З 3
{10}
4000 м слаб. ливневой снег 10/8 600 м
[Cb cap Ci fib]
-5.8 -10.3 70 -11 -11 по сезону 1012.0 976.5
15 15.02 ЮЗ 1 10 км {ливн. осадки} ясно -8.0 -11.7 75 -10 -10 по сезону 1011.2 975.4 -4.4 0.3
18 15.02 ЮВ 2 10 км {ливн. осадки} 9/9 1000 м
[Sc]
-9.4 -12.2 80 -14 -14 по сезону 1009.7 973.7
21 15.02 ЮВ 2 10 км в посл. час ливневой снег 10/4 1000 м
[Sc Ci fib]
-8.3 -11.5 78 -13 -13 по сезону 1007.6 971.9
00 16.02 ЮВ 3 10 км {ливн. осадки} 10/10 1000 м
[Sc]
-10.0 -12.2 84 -16 -16 по сезону 1005.3 969.5
03 16.02 ЮВ 3 4000 м слаб. ливневой снег 10/10 1000 м
[Cb cap]
-9.0 -11.1 85 -15 -15 по сезону 1002.9 967.3 -10.0 0.0 38
06 16.02 Ю 2 10 км в посл. час ливневой снег 10/8 600 м
[Sc Ac und]
-6.8 -10.2 77 -11 -11 по сезону 1001.3 966.1
09 16.02 Ю 2 4000 м слаб. ливневой снег 9/9 600 м
[Cb calv Ac und]
-5.1 -9.7 70 -9 -9 по сезону 1000.1 965.1
12 16.02 ЮЗ 3 10 км {ливн. осадки} 9/4 600 м
[Sc Cc]
-5.1 -10.5 66 -10 -10 по сезону 999.9 964.9
15 16.02 ЮЗ 2 10 км слаб. ливневой снег 10/8 600 м
[Cb calv Ac As]
-6.3 -9.2 80 -11 -11 по сезону 1000.5 965.3 -3.2 0.4
18 16.02 З 2 4000 м слаб. ливневой снег 9/6 600 м
[Cb calv Ac und]
-6.9 -9.2 84 -11 -11 по сезону 1000.3 965.1
21 16.02 З 2 10 км {ливн. осадки} 10/8 600 м
[Sc Ac As]
-8.0 -10.2 84 -12 -12 по сезону 1000.8 965.4
00 17.02 З 2 4000 м слаб. снег 10/0
[Ac As]
-7.8 -10.0 84 -12 -12 по сезону 1000.5 965.2
03 17.02 штиль 0 4000 м слаб. ливневой снег 9/9 600 м
[Cb calv]
-7.8 -10.0 84 -8 -8 тепло 1000.5 964.8 -9.2 0.4 39
06 17.02 Ю 1 10 км снежные кристаллы 4/0
[Ci fib]
-7.3 -11.1 74 -10 -7 тепло 999.8 964.5 -10.3
09 17.02 З 2 10 км слаб. ливневой снег 9/9 600 м
[Cb cap]
-5.5 -10.4 68 -10 -9 по сезону 998.3 963.3
12 17.02 З 3 20 км в посл. час ливневой снег 10/10 600 м
[Cb calv]
-5.1 -10.7 65 -10 -10 по сезону 997.0 962.1
15 17.02 ЮЗ 2 10 км {ливн. осадки} 10/10 600 м
[Cb cap]
-5.7 -9.9 72 -10 -10 по сезону 995.8 960.8 -4.9 0.0
18 17.02 ЮВ 2 10 км слаб. снег 10/0
[As op]
-5.5 -9.2 75 -10 -10 по сезону 994.1 959.2
21 17.02 Ю 2 10 км слаб. снег 10/0
[As op]
-4.9 -8.3 77 -9 -9 тепло 992.2 957.5
00 18.02 ЮВ 2 10 км слаб. снег 10/0
[As op]
-5.0 -7.9 80 -9 -9 тепло 990.6 956.0
03 18.02 ЮВ 3 10 км в посл. час снег 10/0
[Ac As]
-5.5 -8.1 82 -11 -11 по сезону 989.8 955.1 -5.7 0.0 38
06 18.02 ЮВ 3 10 км в посл. час ливневой снег 9/0
[Cs]
-3.8 -7.7 74 -9 -8 тепло 989.7 955.2
09 18.02 ЮВ 3 10 км {ливн. осадки} 8/0
[Cs]
-1.2 -7.2 64 -6 -4 тепло 989.2 955.1
12 18.02 ЮВ 3 20 км {ливн. осадки} 9/3 600 м
[Sc Cs]
-1.8 -7.6 65 -6 -6 тепло 989.6 955.3
15 18.02 ЮВ 3 10 км слаб. ливневой снег 9/6 600 м
[Cb cap Cs]
-4.4 -7.9 77 -10 -10 по сезону 991.3 956.7 -1.2 0.0
18 18.02 ЮВ 2 4000 м слаб. ливневой снег 9/8 600 м
[Cb cap Cs]
-6.1 -7.8 88 -10 -10 по сезону 992.6 957.7
21 18.02 ЮВ 2 4000 м слаб. ливневой снег 8/6 600 м
[Cb cap Cs]
-7.5 -9.1 88 -12 -12 по сезону 993.9 958.8
00 19.02 ЮВ 2 4000 м слаб. ливневой снег 8/8 600 м
[Cb cap Cs]
-8.2 -9.8 88 -13 -13 по сезону 995.1 959.9
03 19.02 ЮВ 1 4000 м слаб. снег 10/0
[As op]
-9.1 -10.8 87 -11 -11 по сезону 997.1 961.7 -9.1 1 38
06 19.02 СВ 1 4000 м слаб. снег 10/0
[As op]
-5.9 -9.3 77 -8 -8 тепло 998.9 963.8 -9.2
09 19.02 В 1 4000 м слаб. снег 10/0
[Ac As]
-6.2 -9.4 78 -8 -7 по сезону 1001.1 965.9
12 19.02 СЗ 4 4000 м слаб. снег 10/0
[Ac As]
-9.0 -12.1 78 -16 -16 прохладно 1003.2 967.6
15 19.02 С 2 4000 м слаб. снег 10/0
[As op]
-11.6 -15.3 74 -16 -16 по сезону 1005.7 969.6 -5.7 1
18 19.02 С 1 10 км {снег} 6/0
[Ac trans]
-13.1 -15.9 79 -15 -15 по сезону 1007.1 970.8
21 19.02 С 2 10 км {снег} 6/0
[Ac trans]
-14.2 -17.3 77 -19 -19 по сезону 1008.0 971.5
00 20.02 СЗ 3 10 км {снег} 8/0
[Ci fib]
-15.2 -18.0 79 -22 -22 прохладно 1009.5 972.8
03 20.02 СЗ 2 10 км 8/0
[Cs]
-16.4 -19.1 80 -22 -22 прохладно 1011.0 974.1 -16.4 0.2 40

 

Местоположение метеостанции Екатеринбург (Свердловская область, Россия): широта 56.83 долгота 60.63 высота над уровнем моря 281 м.

В архиве по умолчанию представлена погода в Екатеринбурге за последнюю неделю. Архивные данные за месяц целиком и за предыдущие месяцы, начиная с января 2011 года, Вы можете получить, выбрав интересующий диапазон дат из раскрывающегося списка и нажав кнопку "Ввод!".


*Определитесь, кто Вы:
робот инопланетянин человек

Внимание! Время в таблицах - всемирное. Для получения местного времени необходимо прибавить поправку, которая равна 5 ч.

Смотрите также архив погоды в соседних городах и на ближайших метеорологических станциях:

Погода в Екатеринбурге (Бот.сад) (Свердловская область, Россия) (5 км)
Погода в Верхнем Дуброво (Свердловская область, Россия) (29 км)
Погода в Сысерти (Свердловская область, Россия) (38 км)
Погода в Ревде (Свердловская область, Россия) (40 км)
Погода в Мариинске (Свердловская область, Россия) (52 км)
Погода в Невьянске (Свердловская область, Россия) (78 км)
Погода в Верхнем Уфалее (Челябинская область, Россия) (86 км)
Погода в Каменск-Уральском (Свердловская область, Россия) (88 км)
Погода в Бисерти (Свердловская область, Россия) (95 км)
Погода в Артемовском (Свердловская область, Россия) (98 км)

Пояснения к столбцам:

Ветер - указаны скорость ветра в м/с - средняя за 10 мин, порывы в срок и между сроками (в фигурных скобках) и направление, откуда дует ветер: С - северный, СВ - северо-восточный, В - восточный, ЮВ - юго-восточный, Ю - южный, ЮЗ - юго-западный, З - западный, СЗ - северо-западный.
Видимость - горизонтальная дальность видимости в метрах или километрах. При видимости от 1 до 10 км при отсутствии осадков обычно наблюдается дымка, при ухудшении видимости до 1 км и менее - туман. В сухую погоду видимость может ухудшаться дымом, пылью или мглою.
Явления - указаны атмосферные явления, наблюдавшиеся в срок или в последний час перед сроком; фигурными скобками обозначены явления, наблюдавшиеся между сроками (за 1-3 часа до срока); квадратными скобками обозначены град или гололедные отложения с указанием их диаметра в мм.
Облачность - указаны через наклонную черту общая и нижняя облачность в баллах и высота нижней границы облаков в метрах; квадратными скобками обозначены формы облаков: Ci - перистые, Cs - перисто-слоистые, Cc - перисто-кучевые, Ac - высококучевые, As - высокослоистые, Sc - слоисто-кучевые, Ns - слоисто-дождевые, Cu - кучевые, Cb - кучево-дождевые. Подробнее классификацию облаков см. в Атласе облаков (PDF).
T - Температура воздуха - температура, измеренная на высоте 2 м над землей.
Td - Температура точки росы - температура, при понижении до которой содержащийся в воздухе водяной пар достигнет насыщения.
f - Относительная влажность воздуха - влажноcть воздуха, измеренная на высоте 2 м над землей.
Te - Эффективная температура - температура, которую ощущает одетый по сезону человек в тени. Характеристика душности погоды. При расчете учитывается влияние влажности воздуха и скорости ветра на теплоощущения человека.
Tes - Эффективная температура на солнце - температура, которую ощущает человек, с поправкой на солнечный нагрев. Характеристика знойности погоды. Зависит от высоты солнца над горизонтом, облачности и скорости ветра. Ночью, в пасмурную погоду, а также при ветре 12 м/с и более поправка равна нулю.
P - Атмосферное давление - приведенное к уровню моря атмосферное давление.
Po - Атмосферное давление - измеренное на уровне метеостанции атмосферное давление.
Tmin - Минимальная температура - минимум температуры воздуха на высоте 2 м над землей.
Tmax - Максимальная температура - максимум температуры воздуха на высоте 2 м над землей.
R - Количество осадков - Количество выпавших осадков за период времени, мм. При наведении курсора мыши на число - период времени, за который выпало указанное количество осадков.
R24 - Количество осадков - Количество выпавших осадков за 24 часа, мм.
S - Снежный покров - Высота снежного покрова, см. При наведении курсора мыши на число - состояние снежного покрова и степень покрытия местности в баллах.